ASL1KA LYNI-LJLJ

Flight info

Callsign ASL1KA
Flight time 1h 4m
Altitude 20000
Route RAVAK L863 VAL N131 ZAG P735 MAGAM MAGAM2L
Aircraft A319/M-SDE3FGHIRWY/LB1

Departure

Time 2026-05-09 09:46
Airport Niš Constantine the Great Airport (LYNI)

Arrival

Time 2026-05-09 10:50
Airport Ljubljana Jože Pučnik Airport (LJLJ)
Time Latitude Longitude Altitude Speed Heading
2026-05-09 09:29 43.33708 21.86538 636 ft 0 kts 22°
2026-05-09 09:43 43.33709 21.86546 636 ft 1 kts 81°
2026-05-09 09:43 43.33698 21.86559 641 ft 5 kts 140°
2026-05-09 09:44 43.33650 21.86617 641 ft 13 kts 135°
2026-05-09 09:44 43.33562 21.86693 639 ft 17 kts 157°
2026-05-09 09:44 43.33447 21.86671 641 ft 19 kts 205°
2026-05-09 09:44 43.33355 21.86571 635 ft 15 kts 263°
2026-05-09 09:45 43.33366 21.86520 640 ft 0 kts 295°
2026-05-09 09:45 43.33436 21.86303 641 ft 56 kts 293°
2026-05-09 09:45 43.33676 21.85548 636 ft 114 kts 293°
2026-05-09 09:46 43.34056 21.84372 886 ft 141 kts 295°
2026-05-09 09:46 43.34440 21.83108 1600 ft 147 kts 293°
2026-05-09 09:46 43.35021 21.81927 2249 ft 161 kts 326°
2026-05-09 09:46 43.36143 21.81286 2953 ft 188 kts 341°
2026-05-09 09:47 43.37466 21.80716 3900 ft 210 kts 343°
2026-05-09 09:47 43.38935 21.80050 4597 ft 234 kts 341°
2026-05-09 09:47 43.40547 21.79246 5324 ft 257 kts 340°
2026-05-09 09:47 43.42218 21.78340 6372 ft 264 kts 339°
2026-05-09 09:48 43.43924 21.77358 7384 ft 268 kts 338°
2026-05-09 09:48 43.45637 21.76330 8340 ft 274 kts 336°
2026-05-09 09:48 43.47399 21.75246 9337 ft 279 kts 336°
2026-05-09 09:48 43.49197 21.74162 10239 ft 285 kts 336°
2026-05-09 09:49 43.51036 21.73087 11128 ft 288 kts 337°
2026-05-09 09:49 43.52897 21.72010 12049 ft 292 kts 337°
2026-05-09 09:49 43.54777 21.70918 12975 ft 294 kts 336°
2026-05-09 09:49 43.56674 21.69808 13867 ft 298 kts 336°
2026-05-09 09:50 43.58596 21.68681 14610 ft 303 kts 336°
2026-05-09 09:50 43.60527 21.67548 15348 ft 307 kts 336°
2026-05-09 09:50 43.62505 21.66386 16095 ft 311 kts 335°
2026-05-09 09:50 43.64513 21.65204 16830 ft 316 kts 335°
2026-05-09 09:51 43.66528 21.63940 17562 ft 319 kts 329°
2026-05-09 09:51 43.68329 21.62136 18295 ft 322 kts 315°
2026-05-09 09:51 43.69833 21.59723 18559 ft 340 kts 302°
2026-05-09 09:51 43.70949 21.56820 18854 ft 353 kts 296°
2026-05-09 09:52 43.72064 21.53755 19395 ft 359 kts 296°
2026-05-09 09:52 43.73213 21.50664 19972 ft 364 kts 296°
2026-05-09 09:52 43.74386 21.47541 20577 ft 368 kts 297°
2026-05-09 09:52 43.75568 21.44397 21212 ft 370 kts 296°
2026-05-09 09:53 43.76758 21.41219 21799 ft 375 kts 297°
2026-05-09 09:53 43.77965 21.37987 22344 ft 380 kts 296°
2026-05-09 09:53 43.79176 21.34732 22959 ft 382 kts 296°
2026-05-09 09:53 43.80401 21.31431 23540 ft 387 kts 296°
2026-05-09 09:54 43.81635 21.28101 24030 ft 391 kts 296°
2026-05-09 09:54 43.82877 21.24746 24584 ft 392 kts 296°
2026-05-09 09:54 43.84107 21.21420 25107 ft 393 kts 296°
2026-05-09 09:54 43.85355 21.18040 25645 ft 394 kts 296°
2026-05-09 09:55 43.86606 21.14643 26182 ft 395 kts 296°
2026-05-09 09:55 43.87857 21.11245 26718 ft 396 kts 296°
2026-05-09 09:55 43.89109 21.07835 27249 ft 397 kts 296°
2026-05-09 09:55 43.90360 21.04418 27774 ft 398 kts 296°
2026-05-09 09:56 43.91609 21.01003 28343 ft 398 kts 297°
2026-05-09 09:56 43.92869 20.97568 28884 ft 398 kts 297°
2026-05-09 09:56 43.94130 20.94133 29407 ft 399 kts 297°
2026-05-09 09:56 43.95375 20.90743 29910 ft 401 kts 297°
2026-05-09 09:57 43.96652 20.87268 30363 ft 402 kts 297°
2026-05-09 09:57 43.97923 20.83798 30751 ft 404 kts 296°
2026-05-09 09:57 43.99193 20.80303 31130 ft 406 kts 296°
2026-05-09 09:57 44.00468 20.76775 31493 ft 408 kts 296°
2026-05-09 09:58 44.01745 20.73237 31861 ft 410 kts 296°
2026-05-09 09:58 44.03026 20.69699 32048 ft 408 kts 296°
2026-05-09 09:58 44.04284 20.66233 32084 ft 394 kts 296°
2026-05-09 09:58 44.05498 20.62893 32086 ft 380 kts 296°
2026-05-09 09:59 44.06670 20.59665 32095 ft 369 kts 296°
2026-05-09 09:59 44.08951 20.53337 32098 ft 364 kts 296°
2026-05-09 10:00 44.11213 20.47035 32093 ft 363 kts 296°
2026-05-09 10:00 44.13470 20.40749 32094 ft 363 kts 296°
2026-05-09 10:01 44.15709 20.34501 32095 ft 363 kts 296°
2026-05-09 10:01 44.17964 20.28187 32090 ft 363 kts 296°
2026-05-09 10:02 44.20214 20.21882 32088 ft 363 kts 296°
2026-05-09 10:02 44.22462 20.15569 32085 ft 363 kts 296°
2026-05-09 10:03 44.24705 20.09264 32083 ft 363 kts 296°
2026-05-09 10:03 44.26939 20.02953 32080 ft 363 kts 295°
2026-05-09 10:04 44.29153 19.96671 32080 ft 363 kts 295°
2026-05-09 10:04 44.31387 19.90318 32080 ft 362 kts 295°
2026-05-09 10:05 44.33623 19.83995 32077 ft 362 kts 296°
2026-05-09 10:05 44.35887 19.77744 32074 ft 363 kts 296°
2026-05-09 10:06 44.38171 19.71435 32071 ft 363 kts 296°
2026-05-09 10:06 44.40437 19.65117 32078 ft 364 kts 295°
2026-05-09 10:07 44.42323 19.59849 32079 ft 364 kts 295°
2026-05-09 10:07 44.44589 19.53510 32087 ft 364 kts 295°
2026-05-09 10:08 44.47218 19.46123 32089 ft 364 kts 295°
2026-05-09 10:08 44.49096 19.40826 32087 ft 365 kts 295°
2026-05-09 10:09 44.51349 19.34467 32093 ft 364 kts 295°
2026-05-09 10:09 44.53605 19.28110 32095 ft 364 kts 295°
2026-05-09 10:10 44.55856 19.21742 32092 ft 364 kts 295°
2026-05-09 10:10 44.58094 19.15340 32103 ft 364 kts 294°
2026-05-09 10:11 44.60210 19.08930 32099 ft 364 kts 294°
2026-05-09 10:11 44.62394 19.02517 32093 ft 364 kts 295°
2026-05-09 10:12 44.64626 18.96138 32090 ft 364 kts 295°
2026-05-09 10:12 44.66856 18.89756 32085 ft 364 kts 295°
2026-05-09 10:13 44.69068 18.83363 32081 ft 364 kts 294°
2026-05-09 10:13 44.71273 18.76954 32085 ft 364 kts 294°
2026-05-09 10:14 44.73478 18.70538 32087 ft 364 kts 294°
2026-05-09 10:14 44.75679 18.64117 32084 ft 364 kts 294°
2026-05-09 10:15 44.77881 18.57692 32080 ft 364 kts 294°
2026-05-09 10:15 44.80068 18.51298 32084 ft 364 kts 294°
2026-05-09 10:16 44.82266 18.44850 32086 ft 365 kts 294°
2026-05-09 10:16 44.84457 18.38389 32091 ft 370 kts 294°
2026-05-09 10:16 44.85580 18.35060 32100 ft 381 kts 294°
2026-05-09 10:17 44.86738 18.31628 32097 ft 394 kts 294°
2026-05-09 10:17 44.87936 18.28085 32094 ft 406 kts 294°
2026-05-09 10:17 44.89165 18.24455 32102 ft 417 kts 294°
2026-05-09 10:18 44.91728 18.16885 32097 ft 436 kts 294°
2026-05-09 10:18 44.94355 18.09102 32095 ft 445 kts 294°
2026-05-09 10:19 44.97004 18.01194 32100 ft 446 kts 294°
2026-05-09 10:19 45.00217 17.93725 32100 ft 449 kts 306°
2026-05-09 10:20 45.04102 17.86801 32097 ft 449 kts 306°
2026-05-09 10:20 45.08006 17.79880 32102 ft 451 kts 306°
2026-05-09 10:21 45.11914 17.72925 32096 ft 451 kts 306°
2026-05-09 10:21 45.15804 17.65950 32098 ft 451 kts 306°
2026-05-09 10:22 45.19691 17.58959 32095 ft 451 kts 306°
2026-05-09 10:22 45.23578 17.51980 32112 ft 451 kts 305°
2026-05-09 10:23 45.27440 17.45037 32104 ft 450 kts 305°
2026-05-09 10:23 45.31310 17.38052 32096 ft 450 kts 305°
2026-05-09 10:24 45.35178 17.31047 32082 ft 450 kts 305°
2026-05-09 10:24 45.39029 17.24043 32083 ft 450 kts 305°
2026-05-09 10:25 45.42890 17.17019 32082 ft 451 kts 305°
2026-05-09 10:25 45.46730 17.10019 32088 ft 439 kts 305°
2026-05-09 10:25 45.48534 17.06727 32090 ft 422 kts 304°
2026-05-09 10:26 45.50304 17.03491 32095 ft 406 kts 304°
2026-05-09 10:26 45.52008 17.00377 32104 ft 391 kts 304°
2026-05-09 10:26 45.53653 16.97365 32112 ft 377 kts 304°
2026-05-09 10:27 45.56809 16.91548 32097 ft 370 kts 304°
2026-05-09 10:27 45.58388 16.88631 31729 ft 373 kts 304°
2026-05-09 10:27 45.59979 16.85690 31350 ft 374 kts 304°
2026-05-09 10:27 45.61567 16.82761 30979 ft 372 kts 304°
2026-05-09 10:28 45.63147 16.79851 30611 ft 370 kts 304°
2026-05-09 10:28 45.64724 16.76947 30246 ft 367 kts 304°
2026-05-09 10:28 45.66285 16.74067 29837 ft 365 kts 304°
2026-05-09 10:28 45.67831 16.71211 29415 ft 363 kts 304°
2026-05-09 10:29 45.69370 16.68363 28996 ft 360 kts 304°
2026-05-09 10:29 45.70898 16.65527 28591 ft 359 kts 304°
2026-05-09 10:29 45.72415 16.62710 28190 ft 357 kts 304°
2026-05-09 10:29 45.73924 16.59901 27789 ft 355 kts 304°
2026-05-09 10:30 45.75425 16.57102 27408 ft 353 kts 304°
2026-05-09 10:30 45.76914 16.54329 27033 ft 351 kts 304°
2026-05-09 10:30 45.78396 16.51569 26648 ft 348 kts 305°
2026-05-09 10:30 45.79870 16.48824 26273 ft 346 kts 305°
2026-05-09 10:31 45.81332 16.46095 25903 ft 344 kts 305°
2026-05-09 10:31 45.82788 16.43376 25536 ft 343 kts 305°
2026-05-09 10:31 45.84233 16.40669 25174 ft 341 kts 305°
2026-05-09 10:31 45.85671 16.37967 24818 ft 340 kts 305°
2026-05-09 10:32 45.87099 16.35281 24465 ft 339 kts 306°
2026-05-09 10:32 45.88491 16.32567 24114 ft 337 kts 301°
2026-05-09 10:32 45.89533 16.29572 23769 ft 334 kts 290°
2026-05-09 10:32 45.90130 16.26365 23381 ft 333 kts 280°
2026-05-09 10:33 45.90541 16.23137 23005 ft 332 kts 281°
2026-05-09 10:33 45.90958 16.19882 22627 ft 331 kts 281°
2026-05-09 10:33 45.91377 16.16641 22255 ft 330 kts 281°
2026-05-09 10:33 45.91794 16.13410 21885 ft 328 kts 281°
2026-05-09 10:34 45.92208 16.10192 21521 ft 327 kts 281°
2026-05-09 10:34 45.93032 16.03778 20804 ft 325 kts 281°
2026-05-09 10:34 45.93440 16.00584 20452 ft 324 kts 281°
2026-05-09 10:35 45.93845 15.97405 20103 ft 323 kts 280°
2026-05-09 10:35 45.94249 15.94242 19759 ft 321 kts 280°
2026-05-09 10:35 45.94652 15.91088 19417 ft 320 kts 280°
2026-05-09 10:35 45.95050 15.87947 19085 ft 319 kts 280°
2026-05-09 10:36 45.95449 15.84807 18756 ft 319 kts 280°
2026-05-09 10:36 45.95846 15.81680 18430 ft 318 kts 280°
2026-05-09 10:36 45.96236 15.78561 18059 ft 317 kts 280°
2026-05-09 10:36 45.96623 15.75445 17683 ft 315 kts 280°
2026-05-09 10:37 45.97008 15.72357 17305 ft 314 kts 280°
2026-05-09 10:37 45.97393 15.69270 16947 ft 312 kts 280°
2026-05-09 10:37 45.97778 15.66205 16586 ft 311 kts 280°
2026-05-09 10:37 45.98159 15.63157 16230 ft 309 kts 280°
2026-05-09 10:38 45.98533 15.60164 15886 ft 308 kts 280°
2026-05-09 10:38 45.98908 15.57136 15533 ft 306 kts 280°
2026-05-09 10:38 45.99279 15.54139 15185 ft 305 kts 280°
2026-05-09 10:38 45.99648 15.51129 14842 ft 303 kts 280°
2026-05-09 10:39 46.00013 15.48147 14503 ft 302 kts 280°
2026-05-09 10:39 46.00379 15.45181 14166 ft 300 kts 280°
2026-05-09 10:39 46.00743 15.42228 13827 ft 299 kts 280°
2026-05-09 10:39 46.01103 15.39281 13449 ft 298 kts 280°
2026-05-09 10:40 46.01459 15.36351 13074 ft 297 kts 280°
2026-05-09 10:40 46.01814 15.33432 12701 ft 295 kts 280°
2026-05-09 10:40 46.02164 15.30541 12349 ft 293 kts 280°
2026-05-09 10:40 46.02516 15.27646 11989 ft 293 kts 280°
2026-05-09 10:41 46.02856 15.24835 11631 ft 291 kts 280°
2026-05-09 10:41 46.03206 15.21939 11283 ft 290 kts 279°
2026-05-09 10:41 46.03548 15.19092 10928 ft 289 kts 279°
2026-05-09 10:41 46.03887 15.16241 10589 ft 289 kts 279°
2026-05-09 10:42 46.04225 15.13393 10250 ft 288 kts 279°
2026-05-09 10:42 46.04563 15.10551 9924 ft 288 kts 279°
2026-05-09 10:42 46.04902 15.07712 9554 ft 287 kts 279°
2026-05-09 10:42 46.05241 15.04887 9182 ft 286 kts 279°
2026-05-09 10:43 46.05578 15.02064 8820 ft 285 kts 279°
2026-05-09 10:43 46.05910 14.99260 8463 ft 283 kts 279°
2026-05-09 10:43 46.06235 14.96480 8107 ft 282 kts 279°
2026-05-09 10:43 46.06559 14.93697 7755 ft 280 kts 279°
2026-05-09 10:44 46.06884 14.90938 7427 ft 278 kts 279°
2026-05-09 10:44 46.07205 14.88208 7127 ft 277 kts 279°
2026-05-09 10:44 46.07527 14.85462 6842 ft 276 kts 279°
2026-05-09 10:44 46.07845 14.82744 6554 ft 274 kts 279°
2026-05-09 10:45 46.08159 14.80055 6247 ft 270 kts 279°
2026-05-09 10:46 46.10627 14.70397 5042 ft 243 kts 292°
2026-05-09 10:46 46.11279 14.68190 4748 ft 235 kts 292°
2026-05-09 10:46 46.11949 14.66092 4432 ft 228 kts 302°
2026-05-09 10:46 46.12868 14.64285 4068 ft 220 kts 306°
2026-05-09 10:47 46.13756 14.62549 3776 ft 211 kts 306°
2026-05-09 10:47 46.14600 14.60899 3479 ft 199 kts 306°
2026-05-09 10:47 46.15396 14.59350 3218 ft 184 kts 306°
2026-05-09 10:47 46.16108 14.57967 2999 ft 161 kts 306°
2026-05-09 10:48 46.16737 14.56743 2790 ft 147 kts 307°
2026-05-09 10:48 46.17322 14.55603 2600 ft 139 kts 307°
2026-05-09 10:48 46.17902 14.54473 2420 ft 136 kts 306°
2026-05-09 10:48 46.18451 14.53404 2243 ft 136 kts 306°
2026-05-09 10:49 46.19011 14.52315 2067 ft 137 kts 307°
2026-05-09 10:49 46.19590 14.51187 1871 ft 139 kts 308°
2026-05-09 10:49 46.20164 14.50067 1690 ft 138 kts 308°
2026-05-09 10:49 46.20742 14.48939 1503 ft 145 kts 309°
2026-05-09 10:50 46.21350 14.47752 1289 ft 145 kts 307°
2026-05-09 10:50 46.21924 14.46632 1224 ft 126 kts 306°
2026-05-09 10:50 46.22344 14.45815 1249 ft 77 kts 306°
2026-05-09 10:50 46.22585 14.45432 1256 ft 27 kts 329°
2026-05-09 10:51 46.22680 14.45365 1259 ft 14 kts 338°
2026-05-09 10:51 46.22712 14.45349 1259 ft 0 kts 343°
2026-05-09 10:51 46.22720 14.45345 1259 ft 3 kts 343°
2026-05-09 10:52 46.22740 14.45336 1262 ft 6 kts 343°
2026-05-09 10:52 46.22792 14.45320 1260 ft 10 kts 352°
2026-05-09 10:52 46.22863 14.45330 1259 ft 11 kts 31°
2026-05-09 10:52 46.22914 14.45391 1259 ft 11 kts 37°
2026-05-09 10:53 46.22962 14.45426 1262 ft 7 kts 40°
2026-05-09 10:53 46.22994 14.45458 1259 ft 2 kts 36°
2026-05-09 10:53 46.23000 14.45465 1262 ft 0 kts 37°
2026-05-09 10:53 46.23003 14.45469 1261 ft 0 kts 37°